Wind_Speed
4 3 5 7 5 4 5 6 7 6 5 6 6 5 5 6 6 6 9 8 3 3 6 9 10 11 15 15 13 11 7 5 8 10 9 8 9 12 11 13 16 13 11 14 18 22 25 29 31 31 30 31 33 34 33 31 30 32 32 31 32 33 32 29 27 26 26 26 23 21 20 20 19 17 15 13 12 11 10 9 8 7 6 6 7 6
3 6 8 7 5 6 8 8 7 7 7 7 6 6 7 6 7 9 11 9 2 3 6 10 10 13 16 15 14 11 6 6 8 12 13 13 11 11 13 15 16 12 10 12 14 18 24 27 29 30 32 35 35 33 33 32 31 32 32 31 31 31 31 30 27 26 25 24 23 22 22 21 20 18 15 15 15 13 11 9 9 8 7 7 7 6
2 6 9 8 7 8 8 7 7 7 7 6 5 5 6 6 6 10 9 5 1 4 5 10 10 12 17 15 14 12 9 8 8 12 16 18 16 14 14 14 14 12 11 11 11 15 21 27 31 30 30 36 39 36 34 32 32 31 30 30 30 30 30 28 25 24 23 23 23 22 21 21 20 17 16 16 15 14 12 10 8 8 8 8 7 7
4 7 9 9 7 7 7 8 7 6 5 5 5 4 6 7 5 7 5 5 5 4 5 9 8 9 13 11 11 11 8 6 4 11 16 18 20 18 17 16 16 16 14 13 13 15 18 24 27 26 27 32 35 36 33 32 33 32 31 32 31 30 29 27 25 25 24 23 22 20 20 19 18 18 17 16 15 14 13 11 10 9 9 8 7 6
9 11 6 6 7 8 8 8 7 5 4 5 7 6 7 9 8 7 4 5 7 6 3 3 3 6 7 7 9 7 3 4 0 9 11 11 14 16 16 15 15 17 16 15 16 16 16 20 23 23 26 30 32 33 34 35 35 33 33 34 33 31 30 30 29 28 26 24 22 20 19 19 19 20 19 17 15 14 14 13 12 11 9 8 7 6
12 13 5 6 9 9 8 9 8 7 5 6 7 9 11 13 12 7 6 5 6 7 3 4 2 6 5 3 8 4 2 2 2 10 12 10 12 14 15 14 13 13 14 14 14 14 15 19 22 22 25 28 29 31 34 36 35 35 36 35 34 33 32 33 32 29 27 25 23 24 25 25 23 22 20 18 17 16 16 15 14 13 10 9 8 7
9 9 6 9 9 8 9 9 8 8 5 6 6 9 13 13 9 5 5 2 0 5 5 4 3 5 6 3 6 2 5 4 5 10 12 12 13 13 13 13 13 13 12 12 12 12 13 17 19 20 25 29 29 31 32 33 33 35 37 35 33 34 34 33 31 30 28 26 26 28 31 29 26 23 20 18 17 16 16 16 15 14 12 10 9 9
7 7 7 10 8 7 7 8 10 9 6 6 6 8 10 9 7 5 3 3 3 5 6 3 4 2 4 4 5 2 6 8 8 10 10 11 13 13 13 13 14 14 13 12 12 11 11 15 19 21 25 29 31 32 31 31 32 34 35 33 33 33 32 31 30 30 30 30 30 31 30 28 26 24 22 19 18 16 15 15 15 14 13 12 11 11
5 7 8 10 8 6 7 10 12 9 7 8 8 8 8 6 6 5 3 4 2 2 7 6 2 2 4 5 4 4 6 7 7 9 10 11 13 13 13 13 13 13 12 12 12 12 13 17 22 25 27 29 32 33 32 32 33 33 33 33 33 31 29 30 31 30 31 31 31 31 29 28 25 23 22 21 18 16 15 14 14 13 12 12 12 11
5 6 7 8 6 6 10 13 13 10 8 8 7 7 5 3 3 2 3 2 2 0 6 8 0 2 4 5 5 4 5 4 5 6 8 9 10 12 13 13 12 11 10 10 10 12 15 20 23 25 27 30 32 33 32 32 32 33 32 32 32 29 28 30 32 31 30 29 30 30 29 28 26 25 24 22 19 17 15 14 14 13 13 12 12 11
8 7 6 5 6 8 10 10 11 14 11 4 4 5 2 3 2 1 1 2 2 2 7 9 3 4 2 5 4 3 1 5 8 6 8 9 8 9 10 11 12 11 10 9 9 9 11 15 18 20 23 26 29 30 29 29 31 32 32 31 30 27 26 29 31 31 28 26 28 29 29 28 28 28 27 24 21 19 17 17 16 15 14 13 13 13
7 8 5 5 8 8 8 6 5 6 6 4 3 2 1 4 3 3 3 3 3 4 7 7 3 5 1 4 4 5 4 8 13 11 13 14 11 9 7 8 9 10 10 9 8 7 8 11 13 16 18 19 24 26 26 27 29 31 31 30 28 25 25 28 29 28 26 26 28 29 29 29 30 30 29 26 23 22 21 20 19 17 16 15 15 15
5 6 6 5 8 6 6 5 4 4 2 3 4 5 2 3 2 2 2 1 3 5 7 4 4 4 3 4 4 9 7 7 12 14 16 16 14 11 8 7 7 6 8 8 7 7 7 8 10 13 16 17 20 23 25 27 29 30 29 28 28 26 27 28 27 24 24 26 29 30 30 30 31 31 29 26 25 25 24 23 21 18 17 16 16 15
5 6 5 3 5 4 6 4 2 3 1 2 3 4 4 2 1 2 3 1 2 5 7 3 4 2 3 2 8 13 6 4 10 12 13 13 13 12 9 8 6 5 6 6 6 7 7 8 10 14 16 17 19 21 24 26 28 29 28 28 28 27 27 27 25 23 24 27 30 31 31 30 31 30 28 26 25 26 24 22 21 19 17 16 14 13
3 5 5 4 4 3 4 5 6 4 2 3 4 5 4 4 4 3 3 2 3 4 4 3 2 2 1 2 9 10 6 6 10 11 11 9 8 9 9 7 7 6 5 4 5 6 7 9 13 15 17 18 20 21 22 23 24 26 27 27 28 26 25 24 24 24 26 28 30 30 29 29 29 28 26 25 24 24 22 20 19 18 16 14 11 11
4 5 7 6 4 5 5 5 6 6 0 3 3 5 3 5 5 2 3 4 3 1 2 3 1 1 3 1 8 8 8 6 7 12 13 11 8 7 6 6 6 6 5 4 5 6 8 11 14 16 17 19 21 20 20 20 21 22 24 25 26 25 24 23 24 26 28 29 29 28 28 27 27 25 24 23 22 21 20 18 18 17 15 13 11 11
2 5 7 4 2 4 8 7 5 6 3 2 1 2 5 5 7 3 1 0 2 2 1 2 2 3 1 3 10 8 9 7 4 4 5 6 8 7 5 5 5 5 5 5 5 7 8 11 14 16 18 19 19 19 19 20 21 23 24 25 25 24 23 23 24 25 27 29 28 27 27 27 26 24 23 22 21 20 19 18 18 17 16 15 13 12
3 5 8 5 4 6 6 5 3 5 6 3 1 5 4 2 4 3 1 2 3 2 2 2 4 2 3 1 6 7 7 8 3 3 3 3 6 7 6 6 6 5 6 5 6 7 7 10 13 16 18 19 20 20 20 20 21 24 26 27 27 26 25 24 24 24 26 28 28 28 28 27 25 23 23 22 21 20 20 19 19 18 18 17 15 15
3 4 8 6 5 6 2 1 3 4 3 4 4 3 3 2 1 0 2 1 1 2 1 2 3 2 1 1 4 5 1 7 4 1 2 4 7 7 6 7 6 6 5 4 5 6 6 9 13 16 18 18 19 20 19 17 20 24 26 27 27 27 27 27 26 26 26 28 28 28 28 27 24 23 23 23 22 21 20 20 20 21 20 18 16 16
2 2 6 5 3 2 4 2 1 5 5 1 2 2 2 3 4 2 2 3 4 2 2 1 2 0 2 4 3 4 5 2 6 4 3 5 7 6 5 5 6 5 4 4 4 5 6 8 13 16 18 17 17 17 15 12 15 20 23 25 26 27 27 27 28 27 27 28 29 27 26 25 24 23 24 24 22 21 20 21 22 22 20 18 16 15
3 1 4 6 4 2 1 1 2 2 3 2 1 4 1 1 2 2 1 2 4 4 3 3 0 3 4 3 1 3 4 6 2 5 5 5 7 7 5 5 5 5 5 4 4 5 6 8 11 15 16 16 15 14 13 11 12 18 22 24 26 29 28 27 26 27 27 27 26 26 25 24 23 23 23 23 21 20 20 21 22 21 19 16 14 14
1 1 2 4 4 3 3 3 3 3 0 0 1 2 2 2 3 2 1 2 2 4 3 5 3 4 4 2 1 3 2 8 5 3 6 6 7 7 6 6 6 6 5 5 5 5 5 7 9 11 13 14 14 14 16 16 17 21 23 22 25 28 24 20 19 20 24 27 26 25 23 22 23 24 23 22 20 20 21 21 20 19 17 15 15 15
1 2 0 3 4 4 5 4 6 7 6 4 2 2 1 1 4 5 4 3 2 2 1 3 3 3 3 2 2 3 3 4 7 5 3 7 8 8 8 8 7 7 6 6 6 5 6 8 9 10 12 13 14 14 15 17 17 20 21 18 19 19 13 11 12 13 15 18 22 23 23 24 25 24 22 21 20 20 20 19 18 16 15 16 17 16
1 2 2 4 3 4 5 0 7 10 8 5 4 4 4 2 1 5 5 4 3 1 1 3 2 2 1 2 3 3 4 4 5 7 5 6 8 9 10 9 8 8 8 7 7 6 8 10 10 10 10 11 12 12 12 12 11 14 16 14 17 20 15 12 15 16 12 11 14 17 19 23 25 24 22 21 20 20 19 18 17 15 14 17 18 17
0 1 1 2 1 3 4 2 4 7 6 2 4 6 6 6 4 2 1 3 3 4 4 5 2 3 2 4 5 5 6 6 6 5 5 5 7 9 9 9 9 9 8 8 8 8 9 10 10 10 10 11 13 13 14 13 7 5 8 12 18 23 21 19 20 20 16 15 15 15 14 15 18 20 21 21 20 20 19 17 16 14 16 18 19 18
1 1 2 3 3 3 3 3 2 1 3 1 4 8 9 9 6 1 2 3 2 3 4 5 3 3 5 8 8 7 7 5 5 6 6 6 8 10 10 10 10 10 10 10 10 9 10 9 10 11 12 13 15 16 16 14 7 3 6 10 16 20 20 21 22 21 20 20 20 19 18 17 16 16 17 18 19 20 20 19 17 16 18 20 20 18
3 2 2 5 4 4 3 2 2 4 5 3 5 9 10 9 7 2 4 4 5 4 3 1 6 9 9 10 11 9 8 6 5 7 8 7 9 11 11 11 11 11 11 11 11 11 11 10 10 12 13 13 16 17 17 16 13 11 12 13 15 17 18 19 22 23 22 22 21 21 22 22 20 19 18 17 16 16 17 18 18 17 17 18 20 19
4 2 1 3 3 2 1 3 3 8 9 6 7 9 10 10 10 7 3 1 5 7 1 2 9 13 9 10 12 10 8 8 8 8 8 8 10 11 11 13 13 13 12 12 12 12 12 11 11 14 16 15 15 17 17 16 15 15 16 18 17 17 17 17 19 21 23 24 24 23 24 25 24 24 22 18 14 13 15 15 16 16 15 16 19 18
4 2 4 2 1 2 5 5 4 7 9 8 9 9 11 11 10 7 4 2 2 5 6 8 11 12 10 9 9 6 5 9 9 9 9 10 11 12 12 14 14 13 13 13 12 12 11 11 11 13 17 19 20 20 19 17 14 13 16 18 17 14 13 16 19 20 20 22 23 24 25 25 25 24 21 18 16 14 14 12 12 14 13 13 16 15
4 2 5 4 2 4 6 7 6 6 7 8 9 10 10 10 7 6 5 3 4 6 10 14 12 8 5 6 6 5 5 9 10 9 10 11 12 12 13 13 13 12 12 12 11 11 11 11 13 16 19 21 22 22 21 18 14 14 14 15 15 13 14 17 19 19 19 19 19 19 18 17 18 18 17 18 18 17 16 13 11 11 11 11 13 14
3 1 4 3 3 4 6 7 8 7 7 8 9 10 11 10 6 5 6 5 8 8 10 14 12 6 3 6 9 7 5 9 11 10 10 11 10 12 13 13 12 11 11 11 10 10 10 11 13 16 18 20 22 23 22 20 19 19 19 20 21 21 20 20 20 19 19 18 17 16 15 14 13 12 13 16 18 17 16 15 12 9 6 7 11 14
2 1 2 2 2 3 5 5 5 6 6 8 10 11 11 8 4 3 4 2 5 9 11 11 8 5 4 8 11 7 6 11 12 10 10 9 8 11 13 12 11 10 10 10 10 9 10 11 12 14 17 21 25 25 23 22 24 25 25 25 26 27 28 28 26 25 24 22 20 17 14 12 10 10 10 11 13 13 13 13 13 10 6 3 5 11
3 3 1 2 2 1 4 2 3 4 4 4 5 8 7 6 4 1 3 4 4 7 9 7 4 5 8 10 10 8 8 10 10 8 8 8 9 11 11 11 11 9 9 9 9 8 9 11 13 16 20 24 25 25 23 23 26 26 25 26 27 30 32 32 31 31 29 28 27 25 21 18 14 12 10 8 7 7 6 6 7 8 6 2 1 4
3 4 3 2 2 1 5 3 5 4 2 1 1 4 5 6 3 3 6 6 6 6 5 5 6 9 10 10 10 9 8 9 7 6 7 7 8 9 10 10 9 8 8 9 8 8 10 13 17 19 22 23 24 24 24 24 25 25 26 27 28 30 31 31 31 31 30 29 29 28 27 25 23 20 17 15 12 10 8 8 5 3 3 3 5 5
4 4 3 2 2 1 3 3 4 3 1 1 2 3 5 6 3 8 10 8 7 9 10 9 10 11 11 10 9 9 9 9 9 8 8 7 6 8 9 9 8 8 8 7 7 8 12 17 19 20 21 22 22 24 25 25 26 27 29 29 29 29 29 29 30 29 28 27 26 25 25 24 23 22 20 18 17 16 15 15 13 10 6 1 3 6
5 4 3 2 2 2 2 2 2 2 1 2 3 5 6 5 5 8 10 7 4 7 11 10 9 10 11 11 9 8 7 9 10 9 8 7 6 8 9 8 7 7 6 6 8 9 13 16 17 16 17 18 19 21 23 23 24 26 28 29 30 30 28 28 29 27 26 25 24 22 21 21 21 20 19 17 16 17 17 16 14 13 10 8 6 3
4 4 3 2 1 2 3 2 2 1 2 3 3 4 3 2 3 3 5 4 4 3 10 12 11 9 10 11 10 8 8 10 10 7 7 7 8 8 9 8 8 8 8 9 10 11 14 16 15 14 15 16 17 18 18 19 20 22 24 26 27 28 28 28 28 26 25 24 23 21 19 18 18 18 18 17 16 17 16 15 14 13 12 11 10 9
5 3 3 3 1 2 4 3 2 1 1 2 3 5 3 3 3 1 4 3 4 2 9 13 14 12 12 12 10 7 7 9 7 4 5 6 6 7 8 9 10 11 11 11 11 11 12 14 14 14 16 18 18 18 18 20 21 22 23 24 23 23 25 27 26 25 24 24 22 21 20 18 17 18 18 17 17 17 16 15 14 14 13 13 12 12
9 5 3 4 2 2 4 3 2 1 1 3 5 7 5 3 2 2 4 2 3 3 7 11 14 13 11 11 8 5 6 6 3 1 1 1 4 5 6 7 8 10 10 9 10 9 10 11 13 15 17 20 20 18 18 20 22 24 24 23 23 22 22 23 22 22 22 22 22 21 21 20 19 19 19 19 18 17 17 16 15 14 14 13 13 13
9 5 4 4 2 2 3 2 1 1 2 4 5 7 5 2 1 3 3 1 1 5 6 9 12 10 7 7 5 4 6 6 6 5 4 4 4 5 6 7 8 9 8 7 7 8 9 11 14 16 18 19 17 16 16 17 21 23 22 21 21 21 20 18 18 18 18 19 20 20 20 20 19 18 18 18 18 17 17 17 16 16 15 15 15 15
4 3 3 4 3 3 4 3 1 0 3 4 5 8 5 0 1 2 3 4 2 6 6 7 9 7 5 5 4 3 4 6 8 7 6 6 6 7 9 11 12 14 14 11 9 10 12 14 15 16 17 16 15 16 16 17 20 20 19 19 19 18 16 15 15 16 16 17 18 17 17 18 17 17 17 17 16 16 16 16 16 16 16 16 16 16
2 2 3 2 2 2 3 3 1 0 3 6 7 6 3 2 2 2 2 1 4 7 6 6 7 7 6 7 7 7 7 8 9 8 7 8 7 8 10 12 13 14 16 15 13 12 13 14 14 15 15 14 14 15 17 18 18 17 17 19 20 17 15 15 15 15 16 17 17 17 17 17 16 16 16 16 16 16 15 15 15 15 15 16 16 16
1 2 2 2 2 2 3 3 2 1 4 9 7 3 3 2 2 1 2 4 5 7 7 7 6 8 9 10 9 10 10 9 8 8 8 7 7 7 9 11 12 13 14 16 14 11 10 11 12 12 12 12 12 14 15 17 18 18 20 21 20 17 16 16 16 16 16 17 18 18 17 17 17 17 16 16 16 16 15 15 15 15 15 16 17 17
2 2 1 1 1 1 2 3 2 1 5 8 4 2 2 2 1 2 4 5 5 5 6 6 5 7 10 11 10 10 9 8 8 8 8 7 7 8 10 11 12 13 13 14 13 10 9 9 9 9 9 9 11 12 13 15 17 19 20 20 17 16 17 17 17 17 18 18 18 18 17 16 16 16 16 16 17 17 17 17 17 17 17 17 18 19
2 3 5 2 2 3 3 3 2 2 2 6 6 5 5 6 6 6 8 7 5 4 5 6 6 7 8 10 10 9 8 8 8 7 7 6 6 9 11 12 13 13 12 11 11 10 8 7 7 7 7 7 9 11 13 14 16 18 18 16 16 17 17 18 18 18 18 18 18 17 16 15 15 15 15 16 17 18 18 19 19 19 18 18 19 19
1 4 5 4 4 6 6 4 4 4 5 7 7 6 8 8 6 8 10 8 6 5 6 6 7 7 8 9 9 8 6 6 7 7 7 6 6 9 13 14 13 12 11 10 9 10 8 6 6 7 9 10 11 13 15 15 15 15 14 14 15 16 17 18 19 18 18 18 17 15 14 14 15 16 16 17 18 18 19 19 19 20 20 19 19 20
2 3 5 4 4 4 4 3 4 6 6 7 7 7 8 8 6 7 9 7 6 8 8 8 9 9 9 9 9 8 7 7 7 7 6 5 6 9 12 12 11 11 11 10 9 9 8 5 6 9 13 14 13 13 14 14 14 13 12 13 15 16 18 19 19 19 19 18 15 14 15 16 17 18 19 20 20 20 20 19 19 19 20 19 20 21
2 3 5 4 3 3 3 4 5 6 5 4 6 6 6 7 6 6 6 6 7 8 8 8 9 7 7 7 8 8 8 7 7 7 6 5 7 9 11 11 10 10 9 8 8 8 8 6 8 11 13 13 12 11 12 13 12 11 12 15 17 19 21 22 21 21 21 19 17 15 16 18 19 20 21 21 21 21 21 20 19 19 18 17 18 19
1 3 3 3 4 5 4 5 6 6 6 4 5 5 5 5 6 6 6 6 7 7 7 8 8 8 8 8 7 8 8 6 7 8 6 5 7 10 12 12 11 10 8 7 8 8 7 4 10 12 12 11 11 11 11 12 12 11 13 16 18 20 22 22 21 20 20 20 19 18 18 18 19 20 21 22 22 21 21 20 20 20 18 17 16 17
3 3 2 5 5 3 3 4 5 5 3 1 3 6 6 5 6 6 6 6 7 7 6 7 8 9 10 10 10 9 7 5 8 10 8 7 9 11 11 11 10 9 8 7 7 6 4 6 10 11 10 10 9 10 10 10 10 9 11 14 15 17 18 18 18 17 16 17 19 19 17 17 17 18 20 21 21 21 21 21 20 19 19 19 18 18
3 4 3 5 4 4 5 6 5 5 4 4 5 6 6 5 6 6 5 5 5 6 7 8 8 7 7 8 12 13 8 7 11 13 10 8 10 11 10 10 10 10 9 8 8 8 7 8 9 9 9 8 9 8 7 7 8 7 8 11 12 13 14 14 15 15 14 13 15 17 16 16 17 18 18 18 19 20 21 22 22 20 19 19 19 19
Wind_Direction
154 192 243 228 228 211 228 229 221 252 263 258 280 272 261 265 270 273 273 275 236 226 256 243 241 242 244 244 239 239 230 194 164 159 161 156 132 121 127 134 131 129 139 143 140 143 144 143 146 150 150 150 151 161 171 174 176 174 171 171 173 174 174 173 173 177 180 179 180 185 188 189 189 190 191 189 184 177 170 165 165 171 177 194 202 204
143 201 236 227 211 207 222 229 224 243 249 252 262 272 279 268 271 275 273 285 243 203 257 249 241 245 243 238 237 233 212 203 176 151 152 151 139 132 136 137 133 131 135 138 136 138 141 143 147 151 152 151 153 162 170 172 174 174 173 174 174 174 175 176 176 178 181 183 184 185 185 185 183 183 182 179 179 176 166 158 162 169 172 185 192 193
226 234 238 225 212 209 226 231 221 233 240 245 246 260 271 263 282 276 270 310 271 205 262 258 241 242 242 235 233 228 212 217 194 158 158 155 149 146 145 141 136 136 140 144 142 143 150 152 153 157 158 155 157 163 169 171 172 172 172 174 174 176 177 178 178 178 180 185 186 182 180 180 179 179 174 169 168 164 156 148 152 162 169 181 183 180
237 252 232 218 213 206 232 242 232 244 247 238 236 247 259 255 267 266 273 343 304 243 247 261 248 237 245 243 240 235 222 237 202 159 164 160 156 153 148 145 146 148 149 150 151 155 160 159 158 163 160 154 155 161 166 169 171 171 170 172 175 178 177 174 176 179 179 181 181 175 174 175 172 166 160 156 154 152 145 138 139 149 162 172 169 163
236 251 214 188 211 207 225 242 234 239 256 247 230 226 248 253 242 243 283 332 319 307 270 268 290 255 248 233 242 257 225 254 174 136 150 148 144 140 137 143 149 150 151 152 157 161 162 162 164 166 158 151 154 162 166 169 172 172 171 174 177 177 175 171 174 179 179 177 177 174 169 168 162 154 151 148 147 148 141 134 132 136 147 151 141 138
243 248 200 191 221 208 217 241 228 204 232 263 237 217 232 249 248 254 304 338 348 318 290 84 44 278 286 233 242 284 82 268 42 120 135 128 126 132 137 146 147 147 152 155 158 160 163 164 163 161 154 151 158 167 168 170 173 173 174 176 177 175 175 173 173 177 176 177 179 171 162 158 154 150 151 150 148 148 139 131 126 121 123 128 129 130
244 239 195 210 222 208 217 241 231 189 192 258 240 214 224 237 240 245 284 299 321 275 275 81 118 259 316 313 257 294 73 61 78 121 133 132 136 144 149 150 147 150 157 158 156 158 164 164 160 158 155 156 163 169 169 171 173 174 175 176 175 175 176 175 174 174 176 178 176 166 159 157 154 152 154 152 149 147 140 133 127 119 112 116 125 127
234 229 209 215 215 208 216 239 233 185 168 245 237 207 216 218 204 206 244 244 226 271 302 3 127 178 304 282 265 308 62 74 110 129 128 136 147 154 156 154 152 156 161 158 154 158 163 164 161 159 158 159 164 168 170 173 173 174 175 175 176 178 178 177 175 176 179 178 169 163 161 160 159 156 153 152 150 147 143 136 131 127 120 120 126 125
229 216 216 213 207 206 212 230 229 184 174 238 225 203 220 212 187 191 227 257 274 316 305 302 108 117 274 274 305 348 56 86 142 140 132 149 156 158 159 153 150 156 158 152 150 157 165 169 167 162 157 158 164 168 172 174 176 176 176 176 179 181 182 179 177 178 179 172 166 163 162 159 158 157 152 151 152 151 149 142 140 141 135 133 133 130
245 224 224 215 208 209 216 228 226 199 202 231 209 198 229 228 166 172 218 254 344 16 265 274 185 131 267 300 334 359 58 108 156 131 130 151 158 163 160 149 147 151 151 150 154 164 169 171 170 162 155 157 164 169 172 174 176 177 177 178 180 183 184 180 177 176 173 169 166 165 161 157 155 156 155 154 156 157 156 152 151 153 151 152 151 147
258 266 259 227 220 213 209 221 221 209 207 194 175 192 269 327 40 70 232 106 80 255 255 256 207 133 273 303 307 315 343 151 144 125 138 149 160 171 162 147 149 153 152 153 158 165 162 161 164 159 153 156 161 166 171 173 176 177 178 180 181 184 183 178 174 172 171 171 168 165 161 158 156 158 159 159 160 161 163 164 161 160 161 161 158 156
280 279 266 242 236 221 198 211 226 205 187 143 131 141 355 334 20 34 355 76 136 249 258 246 178 112 145 270 280 302 274 170 150 149 157 157 163 169 160 149 152 153 151 150 151 153 144 144 155 157 153 154 158 163 169 172 175 178 180 181 181 182 181 176 172 171 173 172 167 165 163 161 160 161 162 163 164 165 166 167 164 163 162 159 155 152
295 261 254 259 248 217 170 214 285 8 66 112 82 83 98 297 337 359 312 138 187 244 255 231 115 102 211 237 309 319 289 190 157 156 159 159 159 157 154 153 149 145 144 145 146 146 141 144 154 153 150 156 162 165 168 171 175 179 181 181 180 180 179 178 176 175 176 172 168 167 165 164 163 164 165 166 167 167 167 167 166 164 161 158 156 155
292 288 280 259 252 211 133 156 263 338 352 133 120 118 141 198 252 276 269 267 226 240 257 244 124 123 258 298 337 332 319 165 146 144 147 148 149 148 149 146 139 134 134 138 143 143 144 145 149 151 151 157 167 171 172 173 175 178 180 180 178 176 177 179 181 181 179 174 170 169 168 167 167 169 171 170 168 168 169 170 171 170 165 160 156 156
229 292 280 217 234 218 154 169 176 169 181 188 168 140 151 173 163 208 226 205 234 239 276 295 123 116 203 277 326 341 15 103 128 127 124 127 134 139 140 134 129 122 115 125 134 133 135 137 144 151 153 158 169 175 176 176 177 177 178 178 175 174 176 179 180 181 180 176 173 173 172 172 174 175 175 173 172 172 173 175 176 176 176 171 161 156
193 247 256 239 226 189 195 211 163 127 184 243 150 110 176 197 158 170 194 168 188 219 341 351 53 57 176 228 340 11 56 72 121 132 132 139 140 130 126 122 118 114 116 129 126 120 126 133 143 152 154 160 168 173 176 179 180 180 178 176 174 174 176 176 176 176 176 175 176 177 178 178 179 178 176 174 175 176 177 179 181 181 182 180 173 165
198 253 271 289 297 203 206 217 171 142 183 260 80 155 223 182 135 129 254 5 88 129 307 19 75 341 353 26 347 7 71 57 23 82 109 129 125 115 107 101 102 109 118 124 120 122 129 131 139 148 152 158 163 169 176 181 183 182 178 176 175 176 175 175 175 174 174 176 178 181 181 181 182 180 176 174 174 177 180 184 186 183 179 177 173 168
203 252 279 289 295 268 226 216 215 171 165 155 210 229 220 114 99 108 145 1 42 154 262 26 88 8 6 58 316 336 80 89 24 2 29 47 81 92 87 83 86 98 109 113 117 121 123 127 134 142 151 160 165 170 176 180 182 180 178 176 175 174 175 176 177 176 177 179 180 181 181 181 182 179 176 177 177 179 184 188 186 180 175 172 170 167
218 245 283 268 246 280 297 168 287 296 213 176 193 197 133 131 247 29 142 163 81 164 231 29 68 65 60 219 284 305 124 127 126 142 126 79 69 72 72 79 82 86 95 97 106 115 118 124 130 139 151 161 166 172 175 176 178 178 176 175 173 173 175 178 179 179 178 177 177 178 179 181 181 179 179 180 180 182 186 188 183 176 173 170 170 171
286 237 278 283 237 284 12 63 264 302 307 339 121 150 115 142 178 174 161 160 148 164 168 80 16 51 238 271 242 233 262 178 138 126 86 69 69 70 68 76 83 87 95 82 83 100 106 115 126 139 151 158 164 171 170 165 173 177 174 173 171 173 176 179 180 180 176 174 173 173 175 177 178 177 179 180 180 183 185 183 179 174 172 173 176 180
351 212 245 293 291 261 343 58 155 194 282 314 162 190 206 85 133 165 167 116 129 146 158 141 238 257 248 294 221 173 301 301 195 124 92 64 67 73 71 76 86 89 92 83 77 87 94 106 120 134 146 150 154 161 159 160 175 180 179 178 175 174 175 177 179 178 176 173 170 169 170 173 174 173 175 178 179 180 180 178 176 174 174 177 180 182
346 170 213 291 295 238 215 198 142 120 120 347 156 194 207 142 127 141 256 310 83 121 155 150 170 252 262 322 1 102 4 308 305 88 106 93 80 79 72 69 79 86 87 83 77 77 86 96 107 120 130 133 137 145 155 170 181 183 184 181 179 178 172 164 166 168 171 173 172 171 170 169 169 170 173 175 176 177 176 175 174 174 177 179 179 180
158 107 102 273 248 237 231 179 107 74 61 59 46 15 21 130 133 144 193 242 48 68 94 112 126 249 284 345 14 48 38 331 330 348 77 97 91 86 78 70 71 78 81 80 78 81 95 97 100 111 117 121 126 132 149 166 172 177 183 179 173 175 156 128 140 147 151 161 165 168 170 169 169 169 171 174 176 177 176 174 175 177 179 180 179 179
95 78 347 300 287 301 295 339 77 60 60 47 349 1 24 337 190 155 171 167 133 134 93 78 92 250 295 68 80 46 40 45 16 349 6 75 86 79 77 75 71 73 72 72 73 73 85 90 90 96 103 110 116 117 125 139 143 158 174 168 154 156 149 139 153 154 138 130 139 150 161 167 170 172 174 177 178 178 176 175 177 178 179 181 179 178
290 95 53 19 349 330 322 332 36 35 49 49 321 342 10 1 6 69 94 97 132 185 154 124 166 233 147 112 106 83 69 69 60 34 26 63 82 78 75 71 65 65 63 62 65 67 71 75 77 81 86 93 100 103 113 128 137 144 157 150 141 146 154 157 160 160 156 151 151 153 152 155 166 173 178 181 180 180 179 178 181 180 178 179 178 179
133 106 106 109 153 184 186 211 222 25 41 31 332 349 9 10 3 37 113 90 148 185 124 126 172 165 131 125 115 106 103 93 80 83 78 74 81 79 75 70 63 60 56 51 53 58 62 63 66 73 81 89 98 105 117 132 145 117 111 131 137 141 151 158 160 160 161 162 166 169 166 166 171 178 186 188 183 182 182 182 183 181 177 179 180 182
98 77 117 130 153 183 176 192 177 106 80 47 8 6 11 5 357 54 118 138 170 143 67 139 161 140 140 144 141 146 149 142 126 108 98 86 82 78 75 73 68 61 55 51 50 50 51 52 49 52 62 80 98 107 115 122 126 127 126 131 139 145 155 163 163 161 162 163 166 169 172 176 179 184 191 192 185 185 188 186 185 184 181 183 183 183
79 22 329 144 161 193 92 60 78 91 81 60 36 21 11 5 13 38 70 139 141 124 87 213 150 137 150 159 154 162 162 140 125 109 99 90 83 79 76 72 67 62 57 53 52 49 47 46 44 44 48 58 74 85 92 100 109 120 128 131 140 152 162 162 157 154 157 160 161 165 170 175 179 181 183 179 174 186 197 192 187 185 182 181 184 186
94 1 305 268 221 1 28 26 44 89 85 59 41 29 14 7 18 28 357 313 131 142 163 163 146 138 150 158 150 152 141 122 112 101 94 86 78 75 72 70 66 62 60 57 54 50 46 44 43 43 45 49 56 64 70 76 83 94 109 123 138 152 156 150 147 148 151 155 159 163 166 169 172 175 175 168 163 176 191 190 186 188 187 186 189 192
86 33 320 325 353 12 28 27 19 56 87 63 34 25 14 360 2 17 8 23 80 118 139 136 129 120 128 135 108 77 93 106 99 88 83 79 78 78 75 73 70 64 61 60 56 52 51 49 46 43 44 45 48 54 62 69 80 92 99 109 118 123 127 132 137 140 140 142 150 158 160 161 164 168 171 169 167 173 181 182 184 191 199 203 202 199
53 15 318 353 30 3 21 37 24 32 74 66 33 17 9 356 351 6 5 37 69 85 112 119 116 101 68 76 74 63 79 94 85 80 80 80 84 87 82 76 72 66 61 55 50 50 49 47 43 41 41 42 44 49 57 66 79 88 89 90 95 100 107 113 116 118 117 120 129 141 148 150 150 152 157 162 167 172 173 174 175 173 181 203 207 205
93 79 325 26 64 358 16 47 40 26 43 48 27 6 353 341 334 2 350 359 98 114 118 115 117 125 103 82 76 64 70 85 84 83 84 82 80 83 83 79 72 67 62 51 41 41 44 42 37 34 36 40 44 47 51 62 74 79 82 86 89 93 96 96 94 92 91 92 96 105 116 127 132 133 133 142 155 160 161 168 173 161 139 142 196 205
121 121 106 58 83 323 335 30 93 50 23 29 7 343 328 302 282 46 60 50 74 115 130 132 131 126 114 100 91 80 73 80 84 85 85 86 83 79 82 81 75 69 67 59 41 31 42 46 40 37 38 40 44 47 51 62 70 73 77 81 84 85 87 87 85 83 80 78 78 80 84 89 90 93 95 98 114 133 145 167 181 173 152 110 357 203
95 118 136 125 124 290 321 351 107 91 49 188 251 324 323 303 295 99 87 67 63 78 99 108 102 101 103 104 105 107 99 92 90 83 80 86 89 87 84 81 78 72 67 65 52 36 45 52 46 41 39 40 43 49 56 61 65 69 73 75 77 78 78 78 77 76 73 71 71 72 75 78 78 77 78 79 81 83 80 74 76 115 165 224 272 262
101 105 116 108 113 102 352 30 102 112 78 208 245 338 338 317 4 80 75 62 76 90 86 85 93 98 99 98 97 101 102 99 92 81 75 77 85 93 89 82 79 78 70 67 62 49 51 56 53 47 42 40 41 48 56 60 63 67 68 68 68 68 69 70 70 69 68 66 66 66 68 70 69 67 68 70 73 72 69 68 67 67 70 68 266 262
125 124 109 82 86 102 62 51 108 150 352 335 326 357 6 349 10 61 69 48 47 103 105 97 96 98 99 99 95 97 101 93 79 64 60 65 70 82 89 87 83 83 79 77 76 70 68 70 70 67 62 55 49 49 53 57 61 64 64 63 63 60 59 61 62 60 61 60 57 58 59 60 58 54 51 52 55 56 53 51 51 49 43 36 33 13
117 126 106 78 63 104 108 76 84 136 332 350 347 344 7 4 341 34 83 45 3 115 127 120 116 113 111 111 113 117 104 81 64 39 30 51 67 78 89 94 93 91 90 89 87 83 79 77 77 77 77 73 63 57 58 61 62 61 58 55 55 52 50 52 52 51 51 50 48 47 46 47 48 42 36 35 36 36 35 33 31 28 22 17 15 15
81 118 127 116 60 87 110 97 77 96 307 322 292 285 262 190 216 168 109 40 6 113 141 132 130 134 131 129 137 135 93 69 59 16 4 42 69 85 94 99 102 105 102 95 90 84 76 69 62 60 68 73 69 66 70 71 69 65 59 54 53 51 49 49 47 44 43 42 41 41 40 37 36 32 26 24 24 22 19 16 13 10 9 7 3 1
50 48 81 96 75 60 97 106 100 122 241 264 269 283 284 221 219 103 92 18 3 121 147 133 130 138 140 142 156 143 90 83 108 221 286 65 80 82 95 102 103 106 107 100 90 81 74 69 61 56 59 63 64 65 69 71 69 66 63 61 61 61 59 56 50 43 40 39 38 40 40 36 32 28 24 22 21 20 16 12 7 0 356 355 354 352
40 31 38 64 66 58 86 97 89 128 240 263 276 287 287 252 271 74 108 253 28 117 143 134 128 136 144 141 141 109 102 129 158 181 194 159 105 78 78 79 76 79 85 91 91 84 80 77 68 59 55 56 57 58 61 67 69 68 67 67 66 64 61 57 52 46 44 44 43 42 41 39 36 32 28 24 20 18 15 12 7 1 356 352 348 344
32 26 40 67 63 56 86 96 60 250 263 293 298 292 292 263 89 103 189 221 121 111 129 127 121 127 127 117 104 74 91 129 142 151 156 138 111 92 83 76 71 69 68 72 81 82 78 71 61 55 53 53 55 55 57 64 67 66 66 65 61 56 54 54 54 53 51 49 47 43 38 35 32 29 26 23 19 16 13 9 5 2 359 355 351 347
22 19 26 58 48 41 83 88 71 208 319 334 319 304 331 98 154 214 242 231 104 109 109 103 109 115 105 100 102 102 104 114 125 131 131 122 115 109 101 90 79 70 66 66 72 77 75 66 55 48 44 45 51 55 56 57 54 51 51 52 50 51 55 57 55 51 45 40 35 32 27 23 19 17 16 13 12 12 11 9 7 4 2 359 357 359
66 60 26 25 35 52 66 51 58 170 321 331 325 326 16 66 189 193 52 51 75 98 99 91 98 110 107 102 102 108 109 107 109 110 107 106 105 105 106 100 87 75 67 63 63 67 75 73 62 50 43 45 51 51 45 43 45 47 50 51 50 50 49 46 41 36 32 28 25 21 18 15 12 11 10 8 8 7 5 5 5 6 6 5 4 6
16 87 119 339 353 80 93 58 69 216 311 338 7 78 43 1 8 79 80 65 52 69 90 88 82 97 109 111 108 107 105 102 103 103 100 100 95 90 93 95 89 79 70 63 58 56 68 82 73 57 50 46 41 37 34 42 52 56 55 51 45 38 34 31 27 24 22 21 18 15 12 11 10 10 10 8 6 5 4 3 1 1 2 3 4 5
16 99 111 85 41 72 98 110 137 170 1 23 51 77 68 49 44 66 83 77 53 43 70 84 79 75 92 105 106 103 103 105 106 103 99 97 93 89 91 93 91 81 68 60 53 43 50 85 88 64 49 42 43 51 55 56 60 61 57 48 35 27 25 21 17 18 18 16 13 11 9 8 8 9 9 7 5 5 5 3 1 1 0 359 359 359
74 92 90 91 89 76 73 91 112 97 67 59 62 66 70 68 60 68 76 74 64 60 66 76 80 74 75 87 92 88 90 97 96 93 95 94 88 91 96 97 95 86 69 54 41 29 38 81 93 63 57 62 67 72 71 66 66 66 59 45 31 23 18 13 12 13 13 11 10 10 9 8 8 7 3 1 360 357 355 354 355 355 354 354 355 355
340 46 70 93 112 92 88 114 115 100 92 87 80 73 72 71 65 68 79 83 82 78 76 76 80 79 75 79 86 87 84 86 86 83 88 94 87 89 95 99 99 91 73 52 33 26 31 58 75 69 70 71 69 68 66 62 63 64 53 38 28 19 12 9 9 8 5 3 3 5 6 6 4 1 358 356 356 354 352 351 349 346 346 348 348 347
353 58 73 73 63 75 113 138 116 94 87 84 87 88 86 83 78 73 80 90 89 86 88 91 92 91 87 86 92 93 83 79 88 94 91 88 86 86 87 89 91 89 76 53 34 22 17 42 78 81 77 71 62 56 55 52 50 45 34 23 14 6 2 2 1 0 360 359 356 355 357 357 356 354 354 353 353 352 351 349 347 344 343 343 341 339
33 62 80 92 77 72 95 118 106 80 52 42 77 99 103 102 99 92 89 93 94 93 94 94 94 102 110 112 108 100 90 80 89 101 100 91 89 90 85 80 77 74 64 44 27 11 2 57 95 90 79 70 59 48 43 39 36 29 18 9 3 359 359 359 358 357 360 1 357 351 347 349 350 351 349 347 345 344 343 340 338 336 334 334 334 333
70 81 94 108 112 135 182 168 140 114 100 125 137 128 125 118 108 102 102 105 107 110 105 91 86 93 104 111 109 102 94 88 96 102 105 109 109 103 94 85 72 58 43 25 18 20 48 104 105 94 85 76 57 41 35 30 25 18 6 1 1 1 0 357 353 349 350 355 357 353 348 347 347 345 343 341 339 338 336 334 333 330 327 326 328 328
101 139 150 133 139 186 198 180 151 130 143 174 164 145 142 130 113 113 121 119 123 132 121 106 99 94 90 100 109 109 105 105 110 111 112 116 115 106 95 87 71 55 46 40 41 54 78 96 93 85 83 71 44 28 20 13 10 3 354 358 4 2 356 352 348 341 337 341 348 347 343 340 338 336 338 339 339 336 333 331 332 331 327 325 324 324
Height
754 763 767 765 765 764 763 762 762 763 763 764 765 767 767 767 763 752 743 736 735 744 744 739 741 738 731 726 721 719 718 722 727 731 736 741 745 753 761 765 763 762 762 765 766 767 766 765 766 769 771 772 772 775 780 783 785 785 786 787 788 789 790 793 796 799 801 802 804 806 807 808 809 811 812 813 814 815 815 815 815 816 816 817 818 819
756 766 766 760 761 760 758 759 760 762 763 765 767 769 768 767 763 751 743 738 734 743 743 736 739 737 728 723 719 718 721 722 723 728 734 739 746 754 761 763 761 760 762 766 767 766 765 765 766 769 769 767 769 774 778 780 783 784 785 786 788 789 790 792 794 796 799 801 803 805 807 808 810 811 812 813 814 815 815 815 815 816 816 817 818 820
764 766 760 755 756 756 757 757 759 763 764 766 768 770 771 765 760 750 741 737 735 742 742 735 739 736 723 719 717 716 719 718 718 724 728 732 742 752 758 760 760 761 764 767 767 766 765 765 765 767 767 764 764 770 775 779 782 783 784 786 788 790 791 792 794 795 798 801 804 806 807 809 811 811 812 813 814 815 816 815 815 815 816 817 819 820
770 761 752 752 754 756 759 757 759 764 765 767 767 771 771 762 762 758 745 738 735 737 739 735 737 733 722 720 718 715 716 715 716 720 723 725 732 742 750 754 755 758 763 766 766 765 763 765 766 766 765 763 763 768 773 777 780 781 783 785 787 789 791 792 794 796 798 802 805 807 809 810 811 812 813 813 814 815 815 815 816 816 816 817 818 820
764 749 744 749 753 756 758 757 759 765 767 766 763 767 766 758 758 756 747 740 734 733 732 734 743 736 724 725 720 715 716 715 716 721 727 728 731 739 748 753 754 754 758 762 763 762 762 764 765 765 764 762 764 767 770 774 777 780 782 785 787 789 791 792 793 796 799 802 805 806 808 810 812 812 813 813 814 815 815 816 816 816 817 817 818 819
756 742 741 749 751 753 757 757 758 762 767 765 759 757 756 752 751 750 747 745 747 745 731 733 754 746 726 724 720 717 718 718 720 725 731 735 739 745 749 753 755 756 757 758 759 760 762 763 763 764 763 763 765 767 769 773 776 779 782 785 787 789 791 792 793 796 799 801 803 804 805 807 809 811 812 813 814 815 815 816 816 817 818 818 819 819
746 738 740 746 749 751 756 756 752 755 767 767 751 742 743 745 748 748 747 749 756 753 733 731 754 752 730 722 720 719 721 724 727 730 733 737 743 747 748 751 753 755 756 756 759 760 761 762 763 763 763 763 765 767 770 774 777 780 782 784 787 789 791 792 793 795 798 801 802 803 804 805 808 810 812 813 814 815 816 816 816 817 818 818 819 820
737 738 741 743 746 751 756 755 745 747 762 761 740 733 737 742 746 744 744 750 751 747 738 733 742 749 738 726 722 721 722 730 733 736 740 741 744 747 746 748 750 751 752 753 757 761 762 762 762 763 763 764 766 768 771 774 777 780 781 784 787 789 791 792 794 795 797 800 802 803 804 806 808 810 812 814 815 815 816 816 816 817 818 819 820 821
732 737 739 739 746 752 750 743 736 740 752 745 729 729 733 734 739 738 741 748 746 749 751 739 735 749 747 729 725 722 721 734 739 739 745 745 745 747 746 747 748 749 750 750 755 760 762 762 761 762 763 764 767 769 772 774 777 780 782 785 787 789 791 793 794 796 798 800 802 804 805 807 809 811 812 814 815 815 815 816 817 818 819 820 821 821
732 731 730 734 742 744 738 730 727 735 741 731 724 728 728 730 735 736 740 745 748 758 759 742 735 750 751 736 730 726 723 736 745 745 748 747 746 746 744 746 748 750 751 752 756 759 759 760 760 762 762 763 766 770 773 776 778 781 783 785 787 789 792 793 794 796 799 801 802 804 806 807 809 811 813 814 815 816 816 817 818 819 820 820 821 822
729 724 724 728 730 728 725 723 722 725 727 724 725 729 731 735 737 737 742 745 756 766 755 739 735 741 751 748 739 733 729 736 746 750 751 749 748 747 744 746 748 750 751 754 758 760 760 761 762 763 764 765 768 771 775 777 779 782 783 785 787 790 792 793 795 797 800 802 803 804 806 807 808 810 812 814 815 816 817 818 819 820 821 821 822 823
730 728 726 721 717 716 717 720 719 719 720 723 728 732 739 745 745 748 750 752 767 770 746 734 733 736 752 754 742 735 731 732 739 744 747 747 747 747 747 749 750 750 752 755 760 761 761 762 763 765 766 768 770 772 775 778 780 782 783 785 787 790 793 794 796 798 800 802 803 804 806 807 809 810 812 814 815 817 818 820 821 821 821 822 823 824
733 729 725 718 712 710 716 722 722 719 719 725 731 738 750 760 759 761 763 762 768 760 738 732 735 743 754 752 743 739 733 733 734 734 739 741 742 746 748 751 752 753 755 758 760 762 762 762 764 766 768 769 771 772 775 777 779 781 782 785 787 790 792 794 796 798 800 802 803 805 806 808 810 811 813 814 816 817 819 820 821 822 822 822 823 824
739 729 721 720 716 707 712 723 729 727 723 727 734 741 754 766 771 773 769 768 766 752 738 733 735 749 758 751 748 746 737 735 734 733 736 739 741 746 748 752 754 756 758 760 761 762 762 763 764 767 769 770 771 773 775 776 778 780 782 784 787 790 793 795 797 799 801 803 804 806 807 809 811 812 814 815 817 819 820 821 822 822 823 823 824 825
749 743 725 720 718 709 709 715 720 722 722 725 728 734 746 753 761 768 763 763 763 752 742 739 744 760 768 760 754 749 741 739 738 736 739 743 746 748 750 753 756 759 761 762 763 763 763 764 766 768 769 771 772 773 774 776 778 780 782 785 788 791 793 796 798 799 801 803 805 806 808 810 812 813 815 816 818 820 821 822 823 823 824 824 825 825
749 745 722 712 712 708 709 709 707 717 727 726 724 733 742 737 739 752 757 756 756 753 752 754 760 767 764 758 754 749 746 747 744 740 740 745 748 751 754 757 759 761 763 764 764 764 764 764 766 767 769 771 772 774 776 777 779 781 783 786 789 791 794 796 798 799 801 802 804 806 808 810 812 814 815 817 819 820 822 823 823 824 825 825 826 826
746 740 718 711 711 706 707 706 704 715 726 727 728 733 731 723 725 742 757 757 754 758 764 768 772 769 761 760 760 756 753 755 755 752 750 750 751 754 759 761 763 763 765 766 765 764 764 765 767 768 770 772 773 775 777 779 780 782 783 786 788 791 793 795 798 799 800 802 804 806 809 811 813 814 816 817 819 821 822 824 824 825 825 825 826 827
741 740 722 715 718 708 702 705 705 706 713 724 731 726 721 723 726 734 752 761 760 764 771 776 780 778 775 774 770 765 761 760 763 765 763 760 757 759 763 765 766 766 766 768 767 766 767 767 769 770 771 773 774 776 778 780 782 783 784 786 787 790 792 795 797 799 801 803 805 807 809 812 813 815 817 819 820 822 823 824 825 826 826 826 827 828
736 743 729 715 717 711 702 709 715 709 705 714 719 714 720 736 740 739 749 760 764 769 776 781 784 782 782 781 775 771 768 762 763 766 765 763 762 766 769 769 769 769 769 771 770 770 770 770 771 772 773 775 776 777 779 781 782 783 784 786 788 790 792 795 797 800 802 803 805 808 810 812 814 816 818 820 821 823 824 825 826 827 827 828 828 829
734 744 737 717 712 712 710 718 728 724 713 711 713 713 720 731 736 739 745 749 755 767 778 783 784 783 782 781 775 771 770 764 762 763 764 765 767 770 773 773 773 772 772 772 773 773 773 773 774 775 776 777 778 779 781 783 785 785 785 786 787 789 791 793 796 798 801 804 806 808 811 813 815 817 819 820 822 823 824 826 827 828 828 829 830 830
736 742 742 726 714 717 723 726 730 731 726 721 722 723 725 729 731 735 740 743 747 759 772 779 784 785 780 776 772 770 773 770 763 761 766 769 770 772 775 776 775 774 774 774 774 775 775 775 776 777 778 779 780 781 783 787 789 787 786 786 785 786 788 791 795 799 802 805 807 809 812 814 816 818 820 821 822 824 825 826 827 828 829 830 830 831
738 743 743 735 725 725 728 723 719 722 725 728 729 729 729 729 732 740 748 749 747 754 764 769 778 784 779 774 772 771 775 774 768 765 768 771 772 773 775 775 775 775 775 776 776 776 777 777 778 779 780 780 781 782 785 788 789 787 786 785 784 786 788 791 796 801 805 807 810 811 813 815 817 819 821 822 824 825 826 827 828 829 830 830 831 832
736 743 745 740 734 729 723 717 716 716 720 727 730 730 730 726 728 738 748 751 752 758 761 762 772 782 779 774 773 773 773 774 773 771 770 771 772 773 774 774 775 776 776 777 777 778 778 779 780 781 781 782 782 783 784 786 786 785 785 786 786 790 794 797 800 805 808 810 812 813 815 815 817 819 820 822 824 825 826 827 828 829 830 831 832 833
734 744 748 741 735 729 720 715 716 717 723 733 735 733 733 732 728 729 734 739 747 757 759 762 777 785 780 776 776 775 773 773 775 775 774 773 773 773 774 775 776 777 777 778 778 779 780 780 782 782 782 782 783 783 783 785 786 787 787 788 789 793 797 801 803 807 810 812 814 815 816 816 816 818 820 821 823 824 825 827 828 829 830 831 832 833
738 748 751 746 743 739 732 727 727 728 733 742 745 740 737 737 733 730 732 734 742 752 752 758 778 786 780 778 778 776 775 775 777 777 777 777 776 775 776 776 777 778 779 779 779 779 780 781 782 783 783 782 783 783 784 786 790 791 789 789 791 793 797 800 802 805 809 813 816 816 817 817 818 819 819 820 822 823 824 826 827 829 830 831 832 834
739 748 750 750 752 752 751 748 744 742 744 748 750 745 741 741 738 735 736 738 744 752 752 758 776 784 782 781 782 780 779 779 780 780 780 781 779 777 778 779 781 782 783 783 782 782 782 782 783 784 784 783 783 784 785 787 791 793 792 793 794 796 798 800 801 803 807 811 814 815 816 818 820 822 823 823 822 822 824 825 827 828 830 831 832 833
742 748 750 752 754 753 754 752 746 745 751 757 756 751 748 747 744 739 737 739 744 753 761 767 772 778 783 784 784 784 782 782 784 783 783 784 783 782 782 784 785 786 788 787 786 786 785 786 786 786 786 785 784 785 785 786 788 791 793 795 797 798 799 800 800 801 805 808 810 813 814 817 820 822 824 825 825 825 826 826 827 828 829 831 832 833
746 750 749 751 753 752 750 750 746 745 754 761 760 756 754 751 748 744 741 743 744 749 763 773 770 773 782 783 782 783 781 782 784 784 785 786 785 786 787 788 790 791 792 792 791 791 790 790 790 789 789 788 787 786 786 786 787 789 792 794 797 798 799 800 801 802 805 807 808 810 812 815 818 820 821 822 824 828 829 828 828 829 830 831 832 833
752 758 755 750 750 750 751 751 749 748 755 762 763 763 762 758 755 754 752 751 746 745 757 770 771 773 778 779 780 782 781 781 783 784 786 787 787 790 791 793 795 796 796 797 797 796 795 795 794 794 793 791 789 787 787 788 789 791 793 794 795 798 799 801 802 804 806 807 808 810 812 815 817 818 820 820 821 826 829 829 830 830 830 831 831 832
755 764 764 756 751 753 754 754 753 753 756 763 768 770 770 766 760 760 761 758 752 751 757 766 772 775 777 777 780 783 783 784 785 787 789 791 793 795 796 797 800 801 802 802 802 802 800 799 799 798 797 795 793 792 792 793 794 795 796 796 796 799 802 803 805 807 808 809 810 812 814 816 817 819 820 820 821 824 827 828 830 831 831 831 831 831
757 766 768 762 760 761 759 757 758 759 760 764 771 774 774 770 761 760 763 761 760 766 768 769 774 779 781 780 783 788 789 789 792 795 796 797 798 798 799 801 804 805 806 807 807 807 804 803 803 802 801 799 798 797 797 798 799 799 800 800 801 803 805 807 809 810 810 811 813 814 816 818 819 820 820 820 821 823 825 827 828 830 830 830 830 830
756 765 768 765 765 767 764 762 764 765 763 766 774 781 782 777 768 765 766 765 765 771 773 774 777 780 783 785 789 795 796 795 798 800 800 801 802 801 802 805 807 809 810 810 811 810 808 806 806 805 804 803 801 801 801 802 802 802 803 804 805 806 807 808 810 811 812 814 815 816 817 818 819 820 820 821 822 823 825 826 827 828 828 829 830 830
754 761 767 767 768 769 768 767 767 769 772 775 783 790 790 783 773 769 769 768 768 770 772 776 779 780 784 788 794 801 802 800 801 802 802 803 803 803 804 806 809 811 811 812 814 813 811 809 809 809 807 806 804 804 805 805 805 806 806 807 807 808 808 809 810 812 813 814 815 816 817 818 819 820 821 823 824 825 825 826 826 826 826 828 831 831
758 761 765 767 768 770 771 770 770 775 781 785 788 791 791 784 774 770 772 775 776 776 777 779 781 784 788 792 798 803 803 803 805 804 804 805 805 806 807 808 810 812 812 814 815 815 813 812 812 812 812 811 809 808 808 808 808 809 809 809 809 810 810 810 811 812 813 814 815 816 817 818 819 821 823 824 825 825 826 826 826 826 827 829 832 832
761 762 765 767 767 771 775 774 774 780 786 786 786 787 788 785 776 772 777 783 784 784 786 788 790 791 794 797 801 804 804 804 806 806 807 808 807 807 809 810 812 813 814 816 817 818 817 814 814 816 816 816 814 813 812 812 812 812 811 811 811 812 812 812 812 813 814 815 816 818 818 819 820 822 823 824 825 825 825 825 826 827 829 830 832 832
757 759 764 768 770 774 778 776 778 787 789 785 783 784 785 786 781 777 782 788 788 787 791 797 800 800 801 803 805 808 807 804 805 808 810 810 810 809 811 813 815 815 817 818 819 820 819 819 819 820 821 821 819 817 816 816 816 815 813 813 813 814 815 815 815 816 817 818 819 819 820 821 821 822 823 824 825 825 825 825 826 827 829 830 830 830
752 755 759 767 771 775 781 787 788 790 788 787 789 792 793 795 793 789 789 790 789 788 792 798 803 806 806 806 807 808 805 803 807 813 813 812 813 813 814 816 817 818 819 820 820 821 821 821 822 823 823 823 823 822 820 820 819 817 815 815 815 816 818 818 818 820 820 821 821 821 822 822 822 823 825 825 825 825 825 826 827 828 828 828 828 828
753 754 755 763 772 774 778 788 791 788 789 793 797 796 794 797 798 794 792 791 789 789 791 793 799 805 805 805 807 804 800 806 817 821 817 815 815 816 816 818 818 819 821 821 822 822 822 822 823 824 824 823 823 824 823 822 820 818 818 818 818 819 821 821 822 823 822 823 823 823 823 823 823 824 826 826 826 827 827 827 828 828 828 828 828 828
757 759 757 762 773 774 775 785 793 794 795 798 796 791 789 792 793 791 792 794 792 791 792 793 797 803 803 803 805 801 801 815 827 825 819 818 818 817 818 819 819 821 822 822 823 823 824 824 825 825 823 822 823 824 824 822 820 819 820 821 821 823 824 824 825 826 825 825 825 825 825 825 825 826 827 828 828 828 828 828 828 828 828 828 828 828
764 767 766 769 777 780 783 793 800 800 798 795 792 789 787 788 789 788 791 795 793 791 794 796 798 801 802 802 803 801 804 818 826 823 820 821 820 819 820 819 821 822 822 823 824 825 826 826 826 825 824 823 824 824 824 823 822 822 823 823 824 824 825 826 828 828 828 828 827 827 828 828 828 829 829 829 829 829 828 828 828 828 828 827 827 826
773 775 776 779 784 786 790 798 804 801 796 793 792 789 787 788 790 791 792 794 793 792 796 798 798 801 802 801 803 806 809 814 817 819 821 822 821 821 822 821 822 823 823 824 824 824 825 825 825 825 825 825 825 824 824 824 824 825 826 826 826 827 828 828 829 829 829 829 829 829 830 830 831 831 831 831 831 830 830 829 829 828 828 827 826 825
778 781 783 785 787 789 793 799 803 801 797 795 795 791 787 787 791 794 795 794 794 795 798 799 800 802 804 804 806 809 812 814 816 819 821 821 821 823 823 824 824 825 825 825 825 825 826 826 826 826 825 825 825 825 825 825 825 826 826 827 828 829 829 830 829 829 829 829 829 830 830 831 832 832 832 832 832 831 831 830 830 829 828 827 825 823
782 785 790 791 790 794 800 804 806 806 803 799 794 791 793 794 794 797 798 797 797 798 800 802 803 803 804 806 809 811 814 817 819 820 821 822 823 824 825 825 826 827 827 828 828 828 828 828 828 828 828 828 827 827 827 827 826 827 827 828 830 831 830 830 830 830 829 829 830 831 831 831 832 832 832 832 831 831 831 830 829 828 827 825 823 822
783 785 790 795 794 797 806 812 814 812 809 803 796 796 802 803 799 798 800 801 802 802 802 804 806 804 804 807 810 813 816 819 820 822 823 824 825 826 827 828 828 829 829 830 830 830 830 830 831 830 830 830 830 829 829 829 829 829 830 831 832 832 831 831 831 831 831 831 831 832 832 832 832 832 832 831 831 830 829 828 828 826 825 824 822 821
788 786 789 798 801 801 806 813 814 812 810 806 803 804 806 806 803 801 802 804 807 806 804 806 809 808 808 809 812 815 817 820 821 823 824 825 826 827 829 830 830 831 831 831 832 832 832 832 832 832 832 832 832 832 832 831 831 832 832 833 833 833 833 833 832 832 832 832 833 833 832 832 832 832 831 831 830 829 828 827 826 825 824 823 822 821
791 788 789 798 804 805 808 812 813 811 811 809 807 807 807 807 807 805 804 807 810 809 809 810 811 812 812 813 815 818 820 821 822 824 825 827 828 829 830 831 832 832 833 833 833 833 833 833 833 833 833 833 834 834 834 834 833 834 835 835 835 834 834 834 833 834 834 833 833 833 832 832 832 831 831 830 829 829 828 827 826 825 824 823 822 821
790 789 792 799 803 807 813 816 813 812 812 811 810 810 809 809 810 808 809 812 813 812 813 814 815 816 817 817 819 822 823 824 824 826 828 828 829 830 831 832 833 833 834 834 834 834 834 834 834 834 834 834 835 835 835 835 835 835 835 835 835 835 835 834 834 834 833 833 833 832 831 831 830 830 829 829 828 827 827 826 825 824 823 821 820 820
792 791 795 801 804 807 813 816 814 813 814 812 811 812 812 812 812 812 812 814 814 815 817 817 818 819 820 821 823 824 825 826 827 828 830 831 832 832 833 833 834 834 835 835 835 835 835 835 835 835 835 835 836 836 835 835 835 835 835 834 834 834 833 832 832 832 832 831 831 830 830 829 829 828 828 827 826 825 825 824 823 822 821 821 820 819
794 795 800 805 809 812 815 816 815 815 817 816 814 814 814 814 814 815 815 816 816 817 818 819 820 821 822 824 824 825 827 829 829 830 832 833 833 834 834 835 835 835 836 836 836 836 836 836 836 836 836 836 836 836 836 835 835 835 834 834 834 833 833 832 832 831 831 830 830 829 828 828 827 827 826 825 824 824 823 823 822 821 820 820 820 819
797 802 805 808 812 815 815 813 811 812 817 819 817 815 815 815 815 816 817 817 818 819 819 821 823 824 824 825 825 826 829 831 831 832 833 834 834 835 835 836 836 836 837 837 837 837 837 837 837 837 837 838 837 837 837 837 836 836 836 835 835 835 835 834 834 833 832 831 830 829 828 827 827 826 826 825 824 823 822 822 821 821 820 819 818 818
800 803 804 807 810 811 809 809 808 810 815 818 816 816 817 816 816 818 819 819 820 820 820 822 825 826 827 827 827 828 829 831 832 833 834 835 835 836 836 837 837 838 838 838 838 838 838 838 838 838 838 838 838 838 838 838 837 837 837 837 837 836 836 836 835 834 833 832 831 830 829 828 827 826 825 825 823 822 821 819 819 819 818 818 817 816